User: anonymous   Login
Location: Armidale
(30.5016°S, 151.6662°E)
Time: 12:44:03
(UTC+10:00)
Language:

AAUSAT CUBESAT 2 - Orbit

View from above orbital plane
View from above orbital plane
View from above satellite
View from above satellite

Ground track
Ground track

The orbit data is extracted from the following two-line orbital elements,

1 32788U 08021F   21206.42346973  .00000501  00000-0  49902-4 0  9992
2 32788  97.5059 199.4917 0012633 136.1446 224.0781 14.95657096719536
Epoch (UTC): 25 July 2021 10:09:47
Eccentricity: 0.0012633
inclination: 97.5059°
perigee height: 571 km
apogee height: 589 km
right ascension of ascending node: 199.4917°
argument of perigee: 136.1446°
revolutions per day: 14.95657096
mean anomaly at epoch: 224.0781°
orbit number at epoch: 71953

The dashed part of the orbit path shows where the satellite is in the earth's shadow,  

DLR